Change the Weather History Date:

Monday, March 11, 2013

  Actual Average Record
Temperature  
Mean Temperature 55 °F 38 °F  
Max Temperature 64 °F 47 °F 80 °F (1876)
Min Temperature 46 °F 28 °F 0 °F (1960)
Degree Days  
Heating Degree Days 10 27  
Month to date heating degree days 311 319  
Since 1 July heating degree days 4423 4576  
Cooling Degree Days 0 0  
Month to date cooling degree days 0 0  
Year to date cooling degree days 0 0  
Growing Degree Days 6 (Base 50)    
Moisture  
Dew Point 33 °F    
Average Humidity 58    
Maximum Humidity 86    
Minimum Humidity 29    
Precipitation  
Precipitation 0.24 in 0.10 in 0.89 in (1935)
Month to date precipitation 0.59 0.98  
Year to date precipitation 5.16 6.07  
Snow  
Snow 0.00 in 0.30 in 9.00 in (1924)
Month to date snowfall 7.4 3.5  
Since 1 July snowfall 49.6 36.3  
Snow Depth 0.00 in    
Sea Level Pressure  
Sea Level Pressure 29.84 in    
Wind  
Wind Speed 10 mph (SSE)    
Max Wind Speed 24 mph    
Max Gust Speed 29 mph    
Visibility 9 miles    
Events Rain    
T = Trace of Precipitation, MM = Missing Value Source: NWS Daily Summary

Daily Weather History Graph

Daily Weather History Graph

Search for Another Location

Airport or City:

Trip Planner

Search our weather history database for the weather conditions in past years. The results will help you decide how hot, cold, wet, or windy it might be!

Date:

Astronomy

Mar. 11, 2013 Rise Set
Actual Time 7:38 AM EDT 7:23 PM EDT
Civil Twilight 7:11 AM EDT 7:50 PM EDT
Nautical Twilight 6:39 AM EDT 8:22 PM EDT
Astronomical Twilight 6:07 AM EDT 8:54 PM EDT
Moon 7:11 AM EDT (3/11) 7:34 PM EDT (3/11)
Length of Visible Light 12h 39m
Length of Day
11h 45m
Waning Crescent, 0% of the Moon is Illuminated
Mar 11
Waning Crescent
Mar 11
New
Mar 19
First Quarter
Mar 27
Full
Apr 3
Last Quarter

Hourly Weather History & Observations

Time (EDT) Temp. Dew Point Humidity Pressure Visibility Wind Dir Wind Speed Gust Speed Precip Events Conditions
12:51 AM 55.9 °F 30.0 °F 37% 29.99 in 10.0 mi SE 6.9 mph - N/A   Overcast
1:51 AM 55.9 °F 28.9 °F 36% 29.96 in 10.0 mi SE 9.2 mph - N/A   Overcast
2:51 AM 55.9 °F 28.9 °F 36% 29.96 in 10.0 mi SSE 4.6 mph - N/A   Overcast
3:51 AM 53.1 °F 30.0 °F 41% 29.94 in 10.0 mi ESE 6.9 mph - N/A   Overcast
4:51 AM 53.1 °F 30.0 °F 41% 29.91 in 10.0 mi ESE 5.8 mph - N/A   Overcast
5:51 AM 52.0 °F 30.0 °F 43% 29.91 in 10.0 mi ESE 5.8 mph - N/A   Overcast
6:51 AM 52.0 °F 30.0 °F 43% 29.93 in 10.0 mi Calm Calm - N/A   Overcast
7:51 AM 52.0 °F 28.9 °F 41% 29.93 in 10.0 mi ESE 3.5 mph - N/A   Overcast
8:51 AM 51.1 °F 30.0 °F 44% 29.94 in 10.0 mi SE 3.5 mph - N/A   Overcast
9:51 AM 53.1 °F 30.9 °F 43% 29.94 in 10.0 mi SE 3.5 mph - N/A   Overcast
10:51 AM 55.9 °F 30.0 °F 37% 29.93 in 10.0 mi SSE 5.8 mph - N/A   Overcast
11:51 AM 59.0 °F 28.0 °F 31% 29.90 in 10.0 mi SSE 11.5 mph - N/A   Overcast
12:51 PM 61.0 °F 28.9 °F 30% 29.86 in 10.0 mi SSE 10.4 mph - N/A   Overcast
1:51 PM 63.0 °F 30.0 °F 29% 29.83 in 10.0 mi South 13.8 mph 19.6 mph N/A   Overcast
2:51 PM 63.0 °F 30.9 °F 30% 29.81 in 10.0 mi South 13.8 mph 21.9 mph N/A   Overcast
3:51 PM 63.0 °F 30.0 °F 29% 29.77 in 10.0 mi South 12.7 mph 24.2 mph N/A   Overcast
4:51 PM 63.0 °F 30.9 °F 30% 29.72 in 10.0 mi SE 13.8 mph - N/A   Overcast
5:51 PM 61.0 °F 28.9 °F 30% 29.70 in 10.0 mi SE 15.0 mph - 0.00 in Rain Light Rain
6:51 PM 59.0 °F 39.0 °F 48% 29.71 in 8.0 mi South 11.5 mph 26.5 mph 0.00 in Rain Light Rain
7:51 PM 57.9 °F 39.9 °F 51% 29.70 in 10.0 mi SSE 19.6 mph 26.5 mph 0.00 in   Mostly Cloudy
8:51 PM 57.0 °F 41.0 °F 55% 29.71 in 10.0 mi South 11.5 mph - N/A   Overcast
9:51 PM 53.1 °F 45.0 °F 74% 29.73 in 5.0 mi South 8.1 mph - 0.03 in Rain Light Rain
10:51 PM 50.0 °F 44.6 °F 82% 29.74 in 3.0 mi West 19.6 mph 28.8 mph N/A Rain Light Rain
11:06 PM 48.2 °F 44.6 °F 87% 29.76 in 3.0 mi West 16.1 mph 25.3 mph 0.09 in Rain Light Rain
11:51 PM 46.9 °F 43.0 °F 86% 29.79 in 5.0 mi WSW 10.4 mph - 0.15 in Rain Light Rain